Time,TemperatureF,DewpointF,PressureIn,WindDirection,WindDirectionDegrees,WindSpeedMPH,WindSpeedGustMPH,Humidity,HourlyPrecipIn,Conditions,Clouds,dailyrainin,SoftwareType,DateUTC
2013-04-05 00:00:00,48.9,44.0,30.20,ENE,67,2.0,6.0,84,0.00,,,0.00,weatherlink.com 1.10,2013-04-05 06:00:00,
2013-04-05 00:15:00,48.1,44.0,30.20,ENE,68,2.0,4.0,86,0.00,,,0.00,weatherlink.com 1.10,2013-04-05 06:15:00,
2013-04-05 00:30:00,47.6,44.0,30.21,NE,49,2.0,4.0,87,0.00,,,0.00,weatherlink.com 1.10,2013-04-05 06:30:00,
2013-04-05 00:45:00,47.3,44.0,30.21,NE,37,2.0,3.0,87,0.00,,,0.00,weatherlink.com 1.10,2013-04-05 06:45:00,
2013-04-05 01:00:00,46.8,44.0,30.22,NE,37,3.0,3.0,88,0.00,,,0.00,weatherlink.com 1.10,2013-04-05 07:00:00,
2013-04-05 01:15:00,46.4,43.0,30.21,NE,45,4.0,4.0,89,0.00,,,0.00,weatherlink.com 1.10,2013-04-05 07:15:00,
2013-04-05 01:30:00,46.5,44.0,30.21,NE,55,3.0,5.0,89,0.00,,,0.00,weatherlink.com 1.10,2013-04-05 07:30:00,
2013-04-05 01:45:00,46.3,43.0,30.21,ENE,71,1.0,2.0,89,0.00,,,0.00,weatherlink.com 1.10,2013-04-05 07:45:00,
2013-04-05 02:00:00,45.9,43.0,30.21,NE,56,2.0,3.0,89,0.00,,,0.00,weatherlink.com 1.10,2013-04-05 08:00:00,
2013-04-05 02:15:00,45.7,43.0,30.21,NE,49,2.0,4.0,90,0.00,,,0.00,weatherlink.com 1.10,2013-04-05 08:15:00,
2013-04-05 02:30:00,45.4,43.0,30.21,NE,55,2.0,3.0,91,0.00,,,0.00,weatherlink.com 1.10,2013-04-05 08:30:00,
2013-04-05 02:45:00,45.1,43.0,30.21,ENE,67,2.0,4.0,91,0.00,,,0.00,weatherlink.com 1.10,2013-04-05 08:45:00,
2013-04-05 03:00:00,44.9,43.0,30.22,NE,52,1.0,2.0,91,0.00,,,0.00,weatherlink.com 1.10,2013-04-05 09:00:00,
2013-04-05 03:15:00,44.6,42.0,30.22,NE,51,2.0,3.0,91,0.00,,,0.00,weatherlink.com 1.10,2013-04-05 09:15:00,
2013-04-05 03:30:00,44.5,42.0,30.22,NE,49,2.0,3.0,92,0.00,,,0.00,weatherlink.com 1.10,2013-04-05 09:30:00,
2013-04-05 03:45:00,44.1,42.0,30.21,NE,45,4.0,5.0,92,0.00,,,0.00,weatherlink.com 1.10,2013-04-05 09:45:00,
2013-04-05 04:01:00,44.0,42.0,30.21,NNE,27,3.0,4.0,93,0.00,,,0.00,weatherlink.com 1.10,2013-04-05 10:01:00,
2013-04-05 04:16:00,43.8,42.0,30.21,ENE,72,1.0,2.0,93,0.00,,,0.00,weatherlink.com 1.10,2013-04-05 10:16:00,
2013-04-05 04:31:00,43.2,41.0,30.22,ENE,72,0.0,0.0,93,0.00,,,0.00,weatherlink.com 1.10,2013-04-05 10:31:00,
2013-04-05 04:46:00,42.7,41.0,30.22,ENE,72,0.0,2.0,93,0.00,,,0.00,weatherlink.com 1.10,2013-04-05 10:46:00,
2013-04-05 05:46:00,41.7,40.0,30.22,NE,53,2.0,5.0,95,0.00,,,0.00,weatherlink.com 1.10,2013-04-05 11:46:00,
2013-04-05 06:01:00,41.9,40.0,30.23,East,79,0.0,1.0,94,0.00,,,0.00,weatherlink.com 1.10,2013-04-05 12:01:00,
2013-04-05 06:31:00,41.4,40.0,30.25,WSW,255,0.0,2.0,95,0.00,,,0.00,weatherlink.com 1.10,2013-04-05 12:31:00,
2013-04-05 06:46:00,42.5,41.0,30.27,WSW,252,2.0,3.0,95,0.00,,,0.00,weatherlink.com 1.10,2013-04-05 12:46:00,
2013-04-05 07:16:00,44.3,43.0,30.28,West,278,0.0,4.0,95,0.00,,,0.00,weatherlink.com 1.10,2013-04-05 13:16:00,
2013-04-05 07:31:00,46.1,45.0,30.28,WNW,282,0.0,2.0,95,0.00,,,0.00,weatherlink.com 1.10,2013-04-05 13:31:00,
2013-04-05 07:46:00,47.0,45.0,30.28,NW,311,0.0,3.0,93,0.00,,,0.00,weatherlink.com 1.10,2013-04-05 13:46:00,
2013-04-05 08:01:00,48.4,45.0,30.27,NE,37,3.0,4.0,89,0.00,,,0.00,weatherlink.com 1.10,2013-04-05 14:01:00,
2013-04-05 08:20:00,49.4,44.0,30.28,NE,45,1.0,6.0,83,0.00,,,0.00,weatherlink.com 1.10,2013-04-05 14:20:00,
2013-04-05 08:31:00,50.2,45.0,30.28,NNE,30,4.0,5.0,81,0.00,,,0.00,weatherlink.com 1.10,2013-04-05 14:31:00,
2013-04-05 08:46:00,51.7,45.0,30.28,NE,51,0.0,5.0,78,0.00,,,0.00,weatherlink.com 1.10,2013-04-05 14:46:00,
2013-04-05 09:01:00,52.7,45.0,30.28,WSW,245,3.0,5.0,76,0.00,,,0.00,weatherlink.com 1.10,2013-04-05 15:01:00,
2013-04-05 09:16:00,53.8,45.0,30.28,North,6,1.0,5.0,73,0.00,,,0.00,weatherlink.com 1.10,2013-04-05 15:16:00,
2013-04-05 09:31:00,54.5,46.0,30.27,NE,34,4.0,8.0,73,0.00,,,0.00,weatherlink.com 1.10,2013-04-05 15:31:00,
2013-04-05 09:46:00,55.0,46.0,30.27,East,101,2.0,7.0,72,0.00,,,0.00,weatherlink.com 1.10,2013-04-05 15:46:00,
2013-04-05 10:01:00,55.7,46.0,30.27,ENE,67,5.0,7.0,69,0.00,,,0.00,weatherlink.com 1.10,2013-04-05 16:01:00,
2013-04-05 10:16:00,57.0,46.0,30.27,ENE,73,7.0,7.0,67,0.00,,,0.00,weatherlink.com 1.10,2013-04-05 16:16:00,
2013-04-05 10:32:00,58.1,47.0,30.27,ENE,77,7.0,9.0,66,0.00,,,0.00,weatherlink.com 1.10,2013-04-05 16:32:00,
2013-04-05 10:46:00,58.9,47.0,30.26,NE,34,7.0,9.0,64,0.00,,,0.00,weatherlink.com 1.10,2013-04-05 16:46:00,
2013-04-05 11:02:00,59.6,47.0,30.26,ENE,68,5.0,8.0,63,0.00,,,0.00,weatherlink.com 1.10,2013-04-05 17:02:00,
2013-04-05 11:17:00,61.9,48.0,30.25,ENE,72,8.0,9.0,60,0.00,,,0.00,weatherlink.com 1.10,2013-04-05 17:17:00,
2013-04-05 11:32:00,61.9,47.0,30.25,East,97,2.0,7.0,59,0.00,,,0.00,weatherlink.com 1.10,2013-04-05 17:32:00,
2013-04-05 12:02:00,64.8,49.0,30.23,ESE,103,8.0,8.0,57,0.00,,,0.00,weatherlink.com 1.10,2013-04-05 18:02:00,
2013-04-05 12:17:00,66.2,48.0,30.21,WSW,246,0.0,7.0,53,0.00,,,0.00,weatherlink.com 1.10,2013-04-05 18:17:00,
2013-04-05 12:32:00,67.0,48.0,30.21,NNE,27,2.0,8.0,50,0.00,,,0.00,weatherlink.com 1.10,2013-04-05 18:32:00,
2013-04-05 12:47:00,67.8,49.0,30.20,SW,236,2.0,5.0,51,0.00,,,0.00,weatherlink.com 1.10,2013-04-05 18:47:00,
2013-04-05 13:02:00,68.9,49.0,30.19,South,170,5.0,6.0,50,0.00,,,0.00,weatherlink.com 1.10,2013-04-05 19:02:00,
2013-04-05 13:17:00,69.0,49.0,30.18,WSW,252,2.0,7.0,49,0.00,,,0.00,weatherlink.com 1.10,2013-04-05 19:17:00,
2013-04-05 13:32:00,68.9,49.0,30.17,SE,142,5.0,6.0,50,0.00,,,0.00,weatherlink.com 1.10,2013-04-05 19:32:00,
2013-04-05 13:47:00,69.6,48.0,30.16,NW,323,2.0,7.0,47,0.00,,,0.00,weatherlink.com 1.10,2013-04-05 19:47:00,
2013-04-05 14:02:00,70.3,50.0,30.14,NW,309,0.0,8.0,48,0.00,,,0.00,weatherlink.com 1.10,2013-04-05 20:02:00,
2013-04-05 14:17:00,71.1,49.0,30.13,SW,235,6.0,6.0,46,0.00,,,0.00,weatherlink.com 1.10,2013-04-05 20:17:00,
2013-04-05 14:47:00,71.2,49.0,30.11,ESE,117,1.0,5.0,46,0.00,,,0.00,weatherlink.com 1.10,2013-04-05 20:47:00,
2013-04-05 15:02:00,71.9,49.0,30.10,ENE,71,7.0,9.0,45,0.00,,,0.00,weatherlink.com 1.10,2013-04-05 21:02:00,
2013-04-05 15:17:00,72.2,50.0,30.09,SSW,197,3.0,10.0,45,0.00,,,0.00,weatherlink.com 1.10,2013-04-05 21:17:00,
2013-04-05 15:35:00,72.3,48.0,30.09,NE,36,2.0,8.0,43,0.00,,,0.00,weatherlink.com 1.10,2013-04-05 21:35:00,
2013-04-05 15:47:00,72.7,49.0,30.09,WSW,250,7.0,7.0,44,0.00,,,0.00,weatherlink.com 1.10,2013-04-05 21:47:00,
2013-04-05 16:02:00,73.3,49.0,30.08,WSW,256,2.0,6.0,43,0.00,,,0.00,weatherlink.com 1.10,2013-04-05 22:02:00,
2013-04-05 16:17:00,74.0,49.0,30.07,SSW,201,3.0,6.0,42,0.00,,,0.00,weatherlink.com 1.10,2013-04-05 22:17:00,
2013-04-05 16:33:00,74.1,50.0,30.07,SE,143,5.0,6.0,43,0.00,,,0.00,weatherlink.com 1.10,2013-04-05 22:33:00,
2013-04-05 16:48:00,73.1,49.0,30.07,SW,219,2.0,6.0,42,0.00,,,0.00,weatherlink.com 1.10,2013-04-05 22:48:00,
2013-04-05 17:03:00,71.8,49.0,30.06,SSE,160,3.0,6.0,44,0.00,,,0.00,weatherlink.com 1.10,2013-04-05 23:03:00,
2013-04-05 17:18:00,71.6,49.0,30.07,South,189,2.0,7.0,45,0.00,,,0.00,weatherlink.com 1.10,2013-04-05 23:18:00,
2013-04-05 17:33:00,72.0,49.0,30.07,SSE,156,2.0,6.0,45,0.00,,,0.00,weatherlink.com 1.10,2013-04-05 23:33:00,
2013-04-05 17:48:00,71.3,50.0,30.07,SSE,158,1.0,5.0,47,0.00,,,0.00,weatherlink.com 1.10,2013-04-05 23:48:00,
2013-04-05 18:03:00,70.6,50.0,30.06,SSE,149,0.0,3.0,49,0.00,,,0.00,weatherlink.com 1.10,2013-04-06 00:03:00,
2013-04-05 18:18:00,71.1,51.0,30.06,SSE,156,0.0,2.0,49,0.00,,,0.00,weatherlink.com 1.10,2013-04-06 00:18:00,
2013-04-05 18:33:00,70.8,51.0,30.06,SE,136,1.0,3.0,49,0.00,,,0.00,weatherlink.com 1.10,2013-04-06 00:33:00,
2013-04-05 18:48:00,69.2,50.0,30.06,ESE,117,0.0,1.0,51,0.00,,,0.00,weatherlink.com 1.10,2013-04-06 00:48:00,
2013-04-05 19:18:00,64.2,53.0,30.06,ESE,117,0.0,0.0,66,0.00,,,0.00,weatherlink.com 1.10,2013-04-06 01:18:00,
2013-04-05 19:33:00,62.3,51.0,30.06,ESE,117,0.0,0.0,67,0.00,,,0.00,weatherlink.com 1.10,2013-04-06 01:33:00,
2013-04-05 19:48:00,61.2,52.0,30.06,ESE,117,0.0,0.0,71,0.00,,,0.00,weatherlink.com 1.10,2013-04-06 01:48:00,
2013-04-05 20:03:00,60.2,53.0,30.06,ESE,117,0.0,0.0,76,0.00,,,0.00,weatherlink.com 1.10,2013-04-06 02:03:00,
2013-04-05 20:18:00,59.5,53.0,30.06,ESE,117,0.0,0.0,79,0.00,,,0.00,weatherlink.com 1.10,2013-04-06 02:18:00,
2013-04-05 20:33:00,58.9,52.0,30.06,ESE,117,0.0,0.0,79,0.00,,,0.00,weatherlink.com 1.10,2013-04-06 02:33:00,
2013-04-05 20:48:00,58.9,53.0,30.06,ESE,117,0.0,0.0,82,0.00,,,0.00,weatherlink.com 1.10,2013-04-06 02:48:00,
2013-04-05 21:03:00,61.1,51.0,30.07,ESE,114,5.0,13.0,69,0.00,,,0.00,weatherlink.com 1.10,2013-04-06 03:03:00,
2013-04-05 21:18:00,61.7,51.0,30.07,SE,131,8.0,11.0,69,0.00,,,0.00,weatherlink.com 1.10,2013-04-06 03:18:00,
2013-04-05 21:33:00,61.4,52.0,30.08,SE,128,4.0,9.0,70,0.00,,,0.00,weatherlink.com 1.10,2013-04-06 03:33:00,
2013-04-05 21:48:00,60.7,52.0,30.09,SE,143,6.0,10.0,72,0.00,,,0.00,weatherlink.com 1.10,2013-04-06 03:48:00,
2013-04-05 22:03:00,60.2,52.0,30.09,SE,127,4.0,9.0,73,0.00,,,0.00,weatherlink.com 1.10,2013-04-06 04:03:00,
2013-04-05 22:18:00,59.5,51.0,30.09,SE,144,4.0,8.0,74,0.00,,,0.00,weatherlink.com 1.10,2013-04-06 04:18:00,
2013-04-05 22:33:00,58.8,51.0,30.09,SSE,149,3.0,6.0,76,0.00,,,0.00,weatherlink.com 1.10,2013-04-06 04:33:00,
2013-04-05 22:48:00,58.1,51.0,30.09,SSE,162,4.0,5.0,78,0.00,,,0.00,weatherlink.com 1.10,2013-04-06 04:48:00,
2013-04-05 23:03:00,57.6,51.0,30.08,SSE,148,3.0,7.0,79,0.00,,,0.00,weatherlink.com 1.10,2013-04-06 05:03:00,
2013-04-05 23:18:00,57.9,50.0,30.08,SE,146,5.0,8.0,76,0.00,,,0.00,weatherlink.com 1.10,2013-04-06 05:18:00,
2013-04-05 23:33:00,57.2,50.0,30.07,ESE,116,5.0,7.0,77,0.00,,,0.00,weatherlink.com 1.10,2013-04-06 05:33:00,
2013-04-05 23:48:00,56.3,50.0,30.06,East,100,2.0,5.0,79,0.00,,,0.00,weatherlink.com 1.10,2013-04-06 05:48:00,